Regional Weather Roundup
Issued by NWS

Home | Current Version | Previous Version | Graphics & Text | Print | Product List | Glossary On
Versions: 1 2 3 4 5 6 7 8 9 10 11 12 13 14 15 16 17 18 19 20 21 22 23 24 25 26 27 28 29 30 31 32 33 34 35 36 37 38 39 40 41 42 43 44 45 46 47 48 49 50
000
ASUS44 KMEG 010400
RWRTN
TENNESSEE HOURLY STATE WEATHER ROUNDUP
NATIONAL WEATHER SERVICE MEMPHIS TN
1100 PM CDT FRI OCT 31 2014

TNZ002-004-019-021-049-052-054-088>092-010500-
WEST TENNESSEE

CITY           SKY/WX    TMP DP  RH WIND       PRES   REMARKS
MEMPHIS INTL   CLEAR     41  23  48 N9        30.33R
NWS MEMPHIS      N/A     41 N/A N/A MISG        N/A
JACKSON        CLEAR     39  25  57 N10       30.28S WCI  32
DYERSBURG      CLEAR     39  18  41 N8        30.33S WCI  34
UNION CITY     CLEAR     37  23  56 N13       30.28S WCI  29
PARIS          CLEAR     36  21  55 N10       30.25S WCI  28
LEXINGTON      CLEAR     37  21  52 NW13      30.22F WCI  29
SAVANNAH       CLEAR     37  23  56 NW12      30.24S WCI  30
$$

TNZ008-025-027-028-033-062-065-066-010500-
NORTH MIDDLE TENNESSEE

CITY           SKY/WX    TMP DP  RH WIND       PRES   REMARKS
NASHVILLE      CLOUDY    42  25  50 NW20G30   30.14S
CLARKSVILLE    MOCLDY    40  24  53 NW24G33   30.19S WCI  29
CROSSVILLE     FLURRIES  35  28  75 NW16G22   30.00S WCI  25
$$

TNZ061-075-076-078-094-096-097-010500-
SOUTH MIDDLE TENNESSEE

CITY           SKY/WX    TMP DP  RH WIND       PRES   REMARKS
SHELBYVILLE    CLOUDY    41  28  60 NW12      30.12F
$$

TNZ017-018-042-046-047-010500-
NORTHEAST TENNESSEE

CITY           SKY/WX    TMP DP  RH WIND       PRES   REMARKS
TRI CITIES     LGT RAIN  38  34  85 W7        29.90R WCI  33
ELIZABETHTON   LGT RAIN  36  34  93 W8        29.89R WCI  29
$$

TNZ012-013-036-069-073-074-010500-
CENTRAL EAST TENNESSEE

CITY           SKY/WX    TMP DP  RH WIND       PRES   REMARKS
KNOXVILLE      LGT RAIN  36  34  92 CALM      29.99F
OAK RIDGE      CLOUDY    40  33  76 CALM      30.00F
GATLINBURG     CLOUDY    36  34  93 SW5       29.98F WCI  32
$$

TNZ083-085-099-010500-
SOUTHEAST TENNESSEE

CITY           SKY/WX    TMP DP  RH WIND       PRES   REMARKS
CHATTANOOGA    CLOUDY    41  30  65 NW9       30.06F
$$

SKY/WX REPORTED AS FAIR MEANS FEW OR NO CLOUDS BELOW
12 THOUSAND FEET.




USA.gov is the U.S. government's official web portal to all federal, state and local government web resources and services.